User: anonymous   Login
Location: Unspecified
(0.0000°N, 0.0000°E)
Time: 07:48:17
(UTC+00:00)
Language:

ESSA 6 - Orbit

View from above orbital plane
View from above orbital plane
View from above satellite
View from above satellite

Ground track
Ground track

The orbit data is extracted from the following two-line orbital elements,

1  3035U 67114A   18112.92886771 -.00000031 +00000-0 +10390-3 0  9992
2  3035 102.2477 109.5503 0048815 018.0902 011.1666 12.54216271309357
Epoch (UTC): 22 April 2018 22:17:34
Eccentricity: 0.0048815
inclination: 102.2477°
perigee height: 1409 km
apogee height: 1485 km
right ascension of ascending node: 109.5503°
argument of perigee: 18.0902°
revolutions per day: 12.54216271
mean anomaly at epoch: 11.1666°
orbit number at epoch: 30935

The dashed part of the orbit path shows where the satellite is in the earth's shadow,  

DLR